Simultaneous Nadir Overpasses (SNOs) Predictions

Prediction of SNOs between METOP-A and TERRA Satellite Orbit:

Table of predicted SNOs for the next 14.0 days since TLE Epoch: 6/5/2021
Index Date (METOP-A) Time (METOP-A) Lat,Lon (METOP-A) SZA (METOP-A ) Date (TERRA) Time (TERRA) Lat,Lon (TERRA) SZA (TERRA ) Distance(km) Time Diff (sec)
1 06/07/2021 13:12:53 81.32, 27.86 61.33 06/07/2021 13:13:54 81.31, 27.74 61.35 2.10 61
2 06/07/2021 14:03:33 -81.31,-164.50 118.65 06/07/2021 14:03:21 -81.31,-164.69 118.67 3.17 12
3 06/10/2021 08:47:15 81.32, 94.12 61.07 06/10/2021 08:48:07 81.32, 94.27 61.11 2.47 52
4 06/10/2021 09:37:55 -81.31, -98.22 118.91 06/10/2021 09:37:34 -81.31, -98.13 118.90 1.56 21
5 06/13/2021 04:21:36 81.31, 160.76 60.89 06/13/2021 04:22:20 81.32, 160.80 60.93 1.52 44
6 06/13/2021 05:12:17 -81.31, -31.95 119.12 06/13/2021 05:11:48 -81.30, -31.95 119.14 1.22 29
7 06/15/2021 23:55:57 81.31,-133.00 60.73 06/15/2021 23:56:33 81.30,-133.05 60.74 1.09 36
8 06/16/2021 00:46:37 -81.30, 34.68 119.24 06/16/2021 00:46:00 -81.31, 34.61 119.26 1.53 37
9 06/18/2021 19:30:18 81.30, -66.40 60.66 06/18/2021 19:30:46 81.31, -66.51 60.66 2.13 28



Historial Predications of SNOs between METOP-A and TERRA
